Theta_e
353 352 353 353 353 353 351 351 350 349 350 349 350 350 350 351 352 352 352 350 348 347 345 345 345 345 345 345 346 346 348 348 346 346 344 346 349 339 332 334 335 335 337 339 341 344 346 348 348 348 349 348 348 348 348 348 347 346 347 348 348 348 348 347 345 345 346 347 347 347 346 346 346 347 347 347 346 346 347 348 348 347 347 345 344
351 351 352 352 353 352 351 351 350 350 350 350 350 350 351 352 353 353 352 350 347 347 346 345 345 345 346 346 347 347 348 349 347 347 343 343 346 341 332 331 333 333 334 335 337 338 340 343 344 344 345 345 345 345 346 346 345 345 346 346 345 345 344 344 342 342 343 343 344 343 342 342 344 345 345 346 347 348 348 348 348 348 348 348 348
350 350 350 351 351 351 351 350 351 350 350 351 351 351 352 353 354 354 352 349 347 347 346 345 345 345 345 346 346 346 347 347 347 346 345 344 345 346 340 336 336 336 336 336 337 337 337 338 339 339 339 339 339 339 339 340 341 342 342 342 341 341 341 341 341 341 341 341 341 341 341 341 342 342 344 347 347 347 348 348 349 349 350 350 351
350 349 349 350 350 351 351 351 351 351 351 352 353 353 353 354 355 355 352 348 347 347 345 345 345 345 345 346 345 345 346 347 347 346 347 347 347 349 348 346 344 342 341 341 341 341 341 341 341 340 340 340 339 339 339 340 340 341 342 342 342 342 343 343 343 343 343 342 343 343 343 343 343 344 346 348 348 348 349 351 351 351 351 351 352
350 349 349 350 350 351 352 352 353 353 353 354 355 354 354 354 353 353 350 347 346 345 344 344 344 345 344 345 345 345 346 346 347 347 348 349 350 349 350 350 350 348 346 345 345 345 345 345 345 344 344 344 344 344 344 344 345 345 345 346 346 346 346 346 346 346 346 346 346 347 347 347 346 346 347 347 349 352 352 353 353 353 353 353 353
349 350 349 349 350 352 352 353 354 354 355 355 355 354 354 354 352 350 348 346 346 345 344 344 344 345 344 345 345 345 346 347 347 347 349 349 350 351 351 351 352 352 350 348 346 346 346 346 346 346 347 347 347 347 347 347 348 347 348 348 348 348 348 348 348 348 348 348 348 350 350 349 347 346 346 349 352 354 354 354 354 354 353 353 352
350 351 350 349 349 351 352 353 354 355 355 355 355 354 354 354 351 349 347 345 345 346 345 345 345 345 345 346 346 346 346 347 348 347 348 349 350 351 351 352 353 353 353 353 350 347 347 347 347 347 347 348 348 348 348 348 349 348 349 349 348 348 349 349 349 349 349 350 351 351 350 347 347 348 350 353 355 355 354 353 353 353 352 351 351
350 351 351 350 349 350 352 353 355 355 354 354 355 354 354 353 352 351 349 347 345 345 346 346 345 345 346 346 346 346 346 347 348 348 349 350 350 349 351 352 353 352 352 354 354 351 348 347 348 348 348 348 347 348 348 348 348 348 348 348 349 350 351 351 351 352 351 351 351 349 348 348 350 353 355 356 355 353 351 349 349 348 348 348 349
351 352 352 351 349 349 351 353 355 355 355 355 354 354 353 353 354 354 352 350 346 345 346 346 345 345 346 346 346 346 347 347 348 349 349 350 350 349 350 351 351 352 354 354 354 354 350 347 346 346 346 347 347 347 347 347 347 348 348 348 350 351 352 352 352 351 350 349 349 349 350 352 354 355 355 353 350 347 344 343 342 340 340 342 343
352 354 353 351 351 351 352 353 355 355 355 355 355 355 354 354 355 355 354 353 350 347 347 347 346 345 345 345 346 347 347 347 347 348 349 349 349 349 349 350 351 351 353 352 351 353 353 350 348 348 348 346 347 347 346 348 347 347 348 349 350 351 350 350 349 349 349 350 351 352 354 354 354 353 349 345 341 340 337 334 331 328 328 330 330
352 354 355 353 353 353 354 355 356 356 356 356 355 356 357 357 356 356 356 354 352 350 349 348 345 345 345 345 346 348 348 346 347 348 349 348 348 348 348 348 349 350 350 352 351 352 353 353 353 354 352 347 346 347 347 348 348 348 350 349 350 350 349 349 349 350 352 352 353 353 353 352 350 346 341 338 334 333 330 325 322 321 321 321 321
353 355 356 356 355 355 355 356 356 356 356 356 356 357 358 358 357 357 356 353 352 349 349 348 346 346 345 345 346 347 348 347 348 347 347 347 347 347 348 347 348 348 349 350 350 350 351 353 355 355 354 351 349 348 348 349 348 349 350 347 349 350 349 350 351 351 351 351 351 349 347 344 341 338 335 333 329 327 323 320 320 320 320 319 318
355 356 357 357 357 356 357 356 355 356 356 357 357 357 358 358 358 358 356 353 351 348 349 350 347 347 345 345 345 345 346 348 349 347 346 346 345 346 347 346 346 347 348 349 350 351 349 352 354 353 354 354 353 351 351 351 350 350 348 345 348 349 349 349 349 349 349 348 346 343 339 337 335 334 333 329 326 323 320 320 321 321 320 318 317
355 355 356 358 357 357 357 357 356 356 357 357 356 357 358 358 359 359 357 353 352 350 351 350 346 346 347 345 344 344 346 347 346 345 345 344 344 345 345 346 345 345 347 348 350 350 348 349 352 352 354 355 354 353 354 354 351 350 347 344 346 347 346 347 346 346 346 344 343 340 338 336 335 334 333 330 326 323 321 321 321 321 319 317 316
355 354 356 358 358 357 356 356 356 356 357 357 356 357 358 359 359 359 358 354 351 350 352 352 348 347 349 347 345 344 345 346 344 343 344 343 344 344 344 344 345 346 347 347 348 349 348 350 351 351 353 353 352 353 354 353 351 350 347 346 347 348 348 349 349 349 347 345 343 342 341 339 337 336 335 333 330 327 326 325 322 321 319 316 316
355 354 355 356 357 357 355 355 356 356 356 357 357 357 359 360 359 359 359 355 350 349 351 352 352 351 349 347 346 345 345 345 344 343 342 342 342 342 342 343 344 346 347 346 346 347 348 349 349 351 351 351 352 353 354 353 352 352 350 348 349 351 351 353 353 353 352 350 347 345 344 343 341 339 338 337 335 333 332 331 327 322 319 317 316
355 354 355 355 356 356 355 355 356 356 357 357 358 358 359 359 360 360 358 356 352 349 349 350 352 354 353 350 348 348 347 346 344 344 343 342 341 341 340 342 344 346 347 345 346 347 346 348 348 350 351 351 352 353 353 353 356 359 358 352 351 352 353 354 355 355 355 355 353 350 348 346 345 343 341 340 339 338 337 337 333 326 321 319 317
355 355 355 355 355 355 355 354 355 356 357 359 358 358 359 358 359 360 358 357 356 351 348 350 352 354 352 350 350 349 349 349 347 346 346 343 341 340 340 342 343 345 346 344 344 345 344 346 348 350 351 351 351 351 352 353 354 359 359 353 351 353 354 354 354 355 355 356 356 355 353 350 349 347 345 342 341 341 340 340 339 333 327 324 320
354 355 355 355 355 355 354 355 355 356 357 359 358 357 358 358 359 360 359 359 359 355 351 350 351 352 350 349 349 349 350 349 349 349 348 345 343 342 341 341 342 343 343 343 343 343 344 345 345 347 349 350 351 352 353 352 352 353 353 352 353 353 353 354 354 354 354 355 356 357 357 355 352 350 349 347 344 342 342 343 342 339 334 331 327
354 355 356 355 355 355 355 355 356 356 357 358 358 358 358 358 359 360 360 360 359 358 356 352 351 351 351 351 349 350 351 349 350 350 349 346 344 343 343 342 342 342 342 342 342 342 343 344 344 345 347 350 352 352 352 352 354 357 354 351 353 353 353 354 353 353 354 354 355 356 357 357 356 353 352 350 349 346 345 344 344 344 340 338 335
355 355 355 355 355 355 355 356 356 355 356 357 357 358 359 358 359 361 361 360 358 359 359 356 354 353 353 354 352 351 350 348 349 349 347 347 346 344 344 343 343 343 343 343 343 343 344 344 345 345 345 348 351 352 352 352 355 358 355 350 352 353 353 354 354 354 354 353 354 355 356 357 358 357 355 353 352 350 348 347 346 346 344 342 342
356 356 355 355 356 356 355 356 356 355 356 357 357 357 357 358 359 360 361 361 359 358 358 357 357 356 355 355 354 352 351 350 349 347 346 347 346 344 344 344 344 344 344 343 343 343 344 344 344 345 344 347 351 352 353 354 354 355 353 351 352 353 353 353 354 354 354 354 354 354 355 356 356 357 357 356 354 352 351 350 349 347 347 346 345
355 356 356 356 356 356 356 356 356 356 356 357 357 356 356 357 359 359 359 359 359 358 358 357 356 356 354 354 354 351 350 350 349 348 348 347 347 345 345 345 345 346 346 345 344 344 344 344 344 345 344 346 349 352 354 355 354 353 351 351 352 352 353 353 354 354 354 354 354 354 354 355 356 356 357 357 356 355 353 352 351 350 348 348 347
356 356 356 356 356 357 357 357 357 357 357 357 357 357 357 358 358 359 359 359 358 358 358 357 356 356 354 353 352 351 350 350 349 349 349 348 348 346 346 345 345 346 346 346 346 345 345 346 346 346 347 347 349 352 354 353 354 354 352 352 351 350 351 352 352 353 353 354 354 354 354 354 355 355 357 357 357 357 356 354 353 352 350 348 348
357 357 356 356 357 358 357 357 358 357 357 357 358 358 358 358 358 359 359 358 359 359 358 357 357 356 355 353 352 351 351 351 349 349 349 349 349 349 348 346 345 346 346 346 346 345 347 347 349 349 348 348 350 353 353 349 352 355 352 351 352 351 350 350 351 352 352 353 354 354 355 354 355 354 355 356 357 357 357 357 355 354 352 350 349
357 358 358 357 358 359 359 358 358 358 358 358 358 359 359 359 358 358 359 359 359 359 359 357 356 356 355 354 353 351 352 352 351 349 349 349 350 350 351 349 347 346 346 348 346 345 347 347 349 352 350 350 353 356 356 351 352 356 351 349 354 355 353 350 349 350 351 352 353 353 354 354 354 354 354 356 356 357 357 357 357 356 355 352 350
357 358 360 360 359 360 359 359 359 358 358 358 358 359 359 359 359 359 359 360 360 360 359 357 355 355 354 354 353 352 352 352 352 350 350 350 350 350 351 351 351 348 346 347 347 346 347 346 347 352 353 353 355 356 357 353 354 355 351 350 353 355 355 351 347 348 348 349 350 351 351 353 354 355 356 356 356 357 357 357 357 357 357 355 352
357 358 359 360 360 360 359 358 359 359 359 359 358 360 361 360 361 361 360 359 360 360 359 357 356 355 354 354 354 352 352 354 353 352 352 352 353 352 351 352 353 352 348 347 348 346 346 346 347 350 353 355 354 353 354 353 353 353 352 353 353 355 356 352 347 347 348 350 351 351 352 354 355 356 356 356 356 356 357 357 357 357 358 357 355
357 357 358 360 360 360 359 358 359 358 359 359 358 361 362 360 362 364 361 361 363 362 359 358 357 356 355 355 355 354 353 354 354 352 354 355 354 353 353 353 354 355 352 352 352 348 346 346 346 348 353 354 353 352 352 352 352 351 351 354 354 355 355 349 348 350 348 350 354 354 354 353 353 353 354 356 356 356 356 356 357 357 358 357 357
357 357 357 359 360 360 360 360 360 359 359 359 359 361 360 359 362 363 362 363 364 364 362 360 358 357 357 356 356 355 354 354 353 352 355 357 355 354 354 355 356 355 355 355 355 352 349 347 346 347 350 352 352 350 350 351 351 352 353 354 354 356 352 348 351 353 350 349 352 356 355 352 349 349 351 353 355 356 356 356 357 357 358 358 357
358 358 357 358 358 359 360 359 359 359 359 359 360 361 360 360 362 360 361 364 365 365 364 361 359 359 359 359 359 358 356 355 355 353 355 357 356 355 354 356 357 357 357 357 357 355 352 350 350 349 349 351 351 351 351 352 351 352 354 354 355 355 352 351 353 354 352 349 349 352 351 348 345 345 347 351 353 354 356 356 357 357 357 358 357
358 358 357 357 357 358 357 357 358 358 359 359 360 362 361 361 361 359 361 364 364 363 363 361 360 360 360 361 361 361 360 359 358 356 356 358 357 357 356 357 358 358 358 358 357 356 354 352 352 351 350 351 351 351 352 352 351 353 354 353 354 353 352 353 352 353 353 349 344 344 344 342 341 342 345 348 350 353 355 355 357 358 357 358 357
358 357 357 357 357 357 356 356 357 358 359 360 360 361 362 362 361 360 361 363 362 362 362 362 360 360 360 360 360 361 362 361 359 357 356 357 358 357 357 358 359 359 360 359 358 358 356 355 354 353 352 352 352 352 353 352 351 352 352 351 351 351 350 351 350 350 351 348 342 341 342 340 339 340 342 347 349 351 353 355 356 354 351 351 351
358 357 357 357 358 357 357 357 358 359 360 360 359 360 361 362 362 360 360 362 361 361 362 361 360 359 360 360 359 359 360 360 359 358 356 356 356 356 356 356 357 357 360 361 361 359 358 357 356 355 354 353 353 353 353 353 352 353 353 352 350 348 347 348 348 348 349 348 344 342 343 343 341 340 341 346 349 350 352 355 352 346 342 342 343
357 357 357 357 358 358 359 360 360 360 361 360 359 360 362 362 362 360 359 359 360 359 359 360 359 359 359 359 359 358 357 358 359 358 356 356 356 356 356 356 357 356 357 359 360 359 358 358 357 356 355 354 354 353 353 353 352 352 351 349 348 347 347 347 346 345 348 347 345 344 344 343 343 341 341 342 344 345 349 351 348 342 340 342 343
355 356 356 357 359 360 360 361 361 361 361 360 359 360 361 362 361 360 359 358 358 357 357 357 357 357 357 357 357 356 356 357 358 356 355 355 356 357 356 356 356 355 354 355 357 358 358 358 357 357 355 355 355 354 353 351 351 351 350 349 347 346 347 347 344 342 343 343 343 346 347 346 345 345 344 342 342 343 345 347 346 344 344 345 345
353 355 356 356 358 360 360 360 361 361 361 361 360 360 359 360 359 358 358 357 357 356 356 356 356 355 356 355 354 355 356 356 355 353 353 354 354 352 352 353 354 353 353 354 354 355 356 357 357 357 356 355 353 354 353 351 350 348 347 348 347 346 347 347 345 342 342 342 343 346 347 346 347 347 346 345 343 343 343 345 345 346 347 347 347
352 353 354 355 356 358 358 358 359 360 361 360 361 360 358 358 358 357 356 355 355 355 354 354 354 353 353 353 353 354 354 354 352 351 351 352 351 348 349 351 351 350 350 350 351 353 355 355 355 354 353 352 351 353 352 351 352 350 347 347 348 347 347 347 347 345 343 343 345 346 346 346 347 349 350 349 348 346 345 344 345 346 346 347 347
350 350 351 353 354 356 356 356 355 358 359 359 359 360 358 357 357 357 355 354 353 353 352 351 350 350 350 350 351 352 352 353 352 350 350 350 349 347 348 350 350 349 348 347 347 350 351 352 351 349 350 349 349 349 348 348 352 353 350 349 349 349 349 350 352 351 349 350 349 348 347 347 349 350 351 353 352 350 348 346 345 346 345 346 347
349 349 348 349 351 353 353 353 353 354 356 357 358 358 358 357 356 356 355 354 353 352 351 351 350 349 349 348 347 348 349 351 352 350 349 350 350 349 350 350 351 352 351 349 349 351 351 350 348 348 348 348 349 349 347 346 349 352 350 348 349 352 353 354 354 354 356 356 353 349 349 350 350 351 352 353 352 353 353 351 349 349 347 346 346
349 348 348 348 349 351 351 353 353 353 353 354 355 357 357 356 355 354 354 353 352 351 351 352 350 350 349 349 346 346 348 351 351 349 348 349 350 351 353 355 355 355 354 353 353 353 353 352 351 349 348 347 346 345 345 345 346 348 348 349 351 353 353 353 354 355 356 356 354 353 354 353 352 352 353 353 353 353 354 352 353 354 351 347 345
353 352 352 350 349 350 351 353 354 353 352 351 353 355 355 355 355 355 355 355 355 354 354 354 353 350 350 349 348 348 351 350 349 348 347 347 348 349 351 353 354 356 357 356 355 354 353 353 351 348 345 344 344 344 344 345 344 344 347 349 352 353 354 356 356 356 356 356 357 359 359 357 355 356 357 357 354 353 352 351 352 352 349 346 346
357 356 356 355 352 350 350 351 352 352 351 350 352 355 353 352 353 355 356 356 357 357 356 355 354 352 350 350 350 351 352 352 352 352 351 348 346 347 348 349 350 351 353 355 356 355 355 354 352 349 348 347 348 348 348 346 345 347 350 353 354 355 356 357 358 357 357 358 359 361 361 359 358 358 360 360 357 355 353 352 352 351 348 346 346
357 356 357 356 355 354 352 351 351 350 349 350 352 353 352 351 350 351 354 354 354 354 354 354 354 353 351 351 350 348 350 351 353 356 356 352 348 346 347 348 348 348 349 350 353 354 356 355 354 352 352 352 353 353 352 351 352 355 357 356 356 356 356 357 357 357 357 358 360 361 361 360 359 359 360 360 358 355 354 354 354 353 350 348 346
357 357 356 356 357 357 355 355 354 351 351 352 352 351 351 350 349 349 351 352 352 351 352 353 354 354 354 354 353 350 349 351 354 357 358 358 355 351 349 348 348 348 348 348 348 350 352 355 356 356 356 356 358 357 357 358 360 360 360 358 357 356 357 357 357 357 357 357 359 360 360 360 359 357 358 358 357 356 356 356 357 356 353 350 348
357 357 357 356 357 357 357 357 357 355 354 353 353 352 350 350 349 349 350 351 351 350 352 353 353 353 355 356 356 355 354 356 358 359 360 361 360 359 357 356 355 354 353 352 350 350 350 351 353 355 356 357 359 359 360 360 360 360 360 359 359 359 359 359 358 358 356 357 359 361 361 361 360 357 357 357 357 356 357 357 357 357 356 354 352
356 355 355 356 356 356 357 357 357 355 353 352 353 351 350 351 351 350 350 353 353 351 353 354 355 356 356 356 357 357 357 359 360 358 358 358 359 359 360 360 359 357 356 355 354 354 355 355 354 356 357 358 359 359 359 359 358 357 357 356 356 357 358 359 359 358 358 357 358 359 360 360 359 357 357 357 356 357 358 357 357 357 358 357 354
354 354 354 354 355 355 356 356 356 353 350 351 352 350 350 351 350 350 352 355 356 355 354 356 357 358 358 358 359 358 358 360 360 355 353 353 354 356 358 358 358 355 354 353 353 354 356 357 357 357 357 357 356 356 355 355 354 352 351 351 352 353 354 357 358 357 356 355 355 355 357 358 358 357 357 357 358 359 360 360 358 357 357 357 355
352 352 353 353 354 355 356 356 354 350 347 348 349 349 350 351 351 352 355 356 356 355 356 357 357 358 358 358 358 358 358 360 359 356 353 351 351 354 358 358 357 356 355 353 353 354 355 355 355 355 355 354 354 353 353 353 353 351 349 348 350 352 353 355 356 356 355 355 355 355 355 356 357 357 357 358 358 359 360 359 358 357 357 357 356
348 348 349 350 350 351 351 350 349 346 344 345 346 346 349 350 352 354 356 356 355 354 356 356 355 357 358 356 355 356 357 357 356 355 353 351 352 355 358 358 357 357 357 356 356 357 358 357 356 357 357 356 356 356 356 355 354 354 351 350 351 352 353 354 355 356 356 357 356 356 356 357 358 358 358 358 358 359 358 357 357 357 357 357 357
344 343 344 345 346 345 344 344 344 343 342 342 342 343 345 347 350 352 354 355 355 355 356 355 355 357 357 356 355 354 354 354 354 353 353 352 353 356 356 357 357 357 356 356 357 358 358 357 357 357 358 358 358 358 358 358 358 358 357 355 354 354 354 355 356 357 357 357 357 357 358 358 358 358 358 358 357 358 358 357 357 358 358 358 357
Wind_Speed
12 12 12 12 12 12 11 11 10 9 9 8 7 7 6 5 4 4 4 5 6 6 7 7 7 7 7 7 7 7 6 6 6 5 5 5 3 3 4 4 3 4 3 2 1 1 1 2 3 3 4 4 4 5 4 5 5 5 5 5 6 6 6 6 6 7 7 7 7 7 7 8 8 8 8 8 9 9 9 9 9 9 10 10 11
12 12 12 12 12 12 11 11 10 9 8 8 7 6 6 5 4 4 4 5 6 7 7 7 8 8 7 6 7 7 6 6 6 6 6 6 4 3 5 6 5 5 5 4 3 2 2 2 2 2 3 3 4 4 4 4 5 5 5 6 6 6 6 6 6 6 6 7 7 8 8 8 8 8 9 9 9 9 10 10 10 10 10 10 11
12 12 12 12 11 11 11 10 9 9 8 8 7 6 5 4 4 3 4 5 6 6 7 7 7 7 7 6 6 7 6 5 6 6 6 6 5 4 5 7 8 7 7 6 6 5 5 5 4 4 4 4 4 4 3 4 4 4 4 5 5 5 5 5 6 6 6 7 8 8 9 9 9 10 10 9 10 10 10 10 10 11 11 11 12
12 11 11 11 11 10 10 9 9 8 7 7 6 5 4 4 3 3 4 5 7 6 6 7 6 6 6 6 6 6 6 4 5 6 6 6 5 4 3 5 7 8 8 7 7 8 8 7 7 7 6 6 6 6 5 5 5 4 5 5 5 5 6 6 6 7 7 8 8 9 9 9 10 11 11 10 10 10 10 10 11 12 13 13 13
11 11 10 10 10 9 9 8 8 7 6 5 4 4 4 4 3 4 4 5 6 6 5 6 6 5 5 6 5 5 5 4 5 5 4 5 5 4 3 3 3 5 7 8 8 8 8 8 8 7 7 7 7 6 6 6 6 6 6 7 7 7 7 7 7 7 8 8 8 9 9 10 11 11 11 10 10 10 10 11 12 13 13 13 12
10 10 9 9 8 8 8 7 7 6 5 4 3 4 4 3 3 4 4 5 5 5 5 6 6 5 5 5 5 4 4 4 4 4 4 4 4 4 3 3 2 2 3 6 8 8 7 7 7 7 7 7 7 7 7 7 8 8 8 8 9 9 8 8 8 8 8 8 8 9 10 10 11 11 10 9 10 11 11 12 13 12 12 11 11
9 9 8 8 8 7 7 6 6 5 4 3 3 4 4 3 3 3 3 4 5 5 5 5 5 5 4 4 4 4 3 4 3 2 4 4 3 3 2 2 2 1 1 2 5 6 7 6 6 7 6 7 7 7 7 8 9 9 9 9 9 9 8 8 8 7 7 7 8 9 9 10 9 9 8 8 10 11 12 12 12 11 11 10 10
8 8 7 7 7 7 6 6 5 4 3 3 3 3 3 3 3 3 3 3 4 5 5 5 5 5 4 3 4 3 2 3 2 2 4 3 3 3 2 2 2 2 1 1 1 3 5 6 5 6 6 6 7 7 8 8 9 9 10 10 9 8 7 7 6 6 6 7 7 8 8 7 7 7 8 9 11 11 11 11 11 10 10 10 10
7 8 7 6 7 7 6 6 4 4 4 3 3 3 3 3 3 3 3 3 3 5 5 4 4 4 3 4 4 2 2 2 2 3 3 2 2 2 2 2 2 1 1 1 1 1 4 5 5 5 6 6 6 7 8 9 9 10 10 10 9 8 7 7 6 6 6 6 6 5 6 6 6 7 8 9 9 9 9 9 9 9 9 10 11
7 7 7 6 6 6 6 5 4 4 4 4 4 4 3 3 3 3 3 3 3 5 5 4 3 3 3 4 3 2 2 2 2 2 2 2 2 2 3 2 1 1 0 0 1 0 2 4 5 5 6 7 7 8 9 9 10 10 11 11 9 8 8 7 7 6 6 6 5 5 5 6 7 8 8 8 7 7 7 7 7 6 7 9 11
7 7 7 6 6 6 6 5 4 4 4 4 4 4 3 3 3 3 3 3 3 4 5 4 3 4 4 4 4 2 2 2 2 2 1 2 2 3 3 3 2 1 1 0 0 1 1 2 3 3 5 6 7 8 9 10 11 11 12 11 9 8 8 8 7 7 7 6 6 6 6 7 7 7 7 7 7 7 7 6 5 5 6 8 9
6 6 6 6 6 5 5 4 4 4 4 4 4 4 3 3 3 4 3 3 3 4 5 4 4 5 4 4 4 3 3 2 1 2 1 2 3 2 2 3 2 1 1 1 1 1 2 2 2 3 3 5 7 9 10 11 11 11 12 11 9 8 8 8 8 8 8 8 7 7 7 7 7 7 7 8 8 8 7 7 6 6 7 8 9
6 6 5 5 5 5 5 4 4 4 3 4 4 4 3 3 3 3 3 4 4 5 6 4 4 5 4 6 6 5 4 2 1 2 2 3 3 3 2 3 2 2 2 2 2 2 2 3 3 4 4 4 6 8 10 11 12 12 12 11 10 9 9 9 9 10 10 10 9 9 8 8 8 8 9 9 10 9 9 9 9 8 8 9 10
6 6 5 5 5 5 5 4 4 4 4 4 4 3 3 3 2 2 3 4 4 6 6 4 4 6 4 5 7 7 5 2 2 2 2 3 3 3 2 2 3 2 3 3 2 2 3 4 4 4 4 4 5 6 7 9 10 11 11 12 12 11 12 12 12 12 12 12 11 10 10 9 9 9 10 11 11 11 11 11 11 11 11 11 12
6 6 5 5 4 4 4 4 4 4 3 4 3 3 3 3 3 3 2 3 5 6 7 7 6 5 3 3 4 5 4 3 4 3 3 3 3 4 3 2 3 3 2 3 3 3 3 3 4 3 3 4 4 5 5 5 8 10 11 11 12 13 13 13 13 14 14 14 13 12 12 11 11 10 11 12 12 12 12 13 13 13 13 13 14
6 6 5 5 4 4 4 4 4 3 3 3 3 3 3 2 3 4 3 3 5 6 7 8 8 5 2 1 2 3 3 4 5 3 3 4 2 3 3 2 4 3 1 2 3 2 2 2 2 2 3 3 4 4 4 4 6 8 10 11 11 11 12 12 13 14 14 14 14 14 13 13 12 12 12 12 12 13 14 14 15 14 14 14 15
7 6 5 5 4 4 4 4 4 3 3 3 3 3 3 3 3 4 5 5 5 6 6 7 8 7 5 3 2 3 3 3 5 4 3 5 4 3 3 2 4 3 1 2 2 1 1 2 2 1 2 3 3 3 3 3 4 4 6 8 9 9 10 10 11 12 12 13 13 13 14 14 14 13 13 12 13 13 14 15 16 15 15 15 16
7 6 6 5 5 4 5 4 4 3 3 2 3 3 3 3 3 4 5 6 5 4 6 6 6 6 6 5 4 4 4 4 3 2 3 4 4 5 4 3 3 3 2 2 2 1 1 1 1 1 2 3 2 2 2 2 3 2 3 6 7 8 8 9 9 10 11 11 12 12 13 13 14 14 13 13 13 14 14 15 15 16 16 17 18
7 6 6 5 5 5 5 4 3 3 3 3 3 3 4 4 3 4 4 5 5 4 4 5 5 5 5 6 5 5 5 5 3 2 2 3 3 4 5 4 3 3 2 1 1 1 1 1 1 2 2 2 2 1 1 1 2 3 3 5 6 7 7 8 9 9 10 10 10 11 12 12 13 13 13 14 14 14 14 14 15 16 17 18 19
7 6 6 6 5 5 5 4 4 4 4 3 3 3 4 4 3 4 4 4 5 5 5 4 4 5 6 5 5 5 4 5 5 3 2 2 3 2 3 3 2 3 2 1 2 2 1 2 2 2 2 2 2 1 1 1 1 1 3 5 5 6 7 7 9 9 10 10 10 10 11 12 12 12 13 13 14 14 14 14 15 16 17 18 19
7 7 6 6 5 5 5 5 5 5 5 4 4 4 4 3 3 2 3 3 4 4 5 5 4 4 5 5 5 4 3 3 3 2 3 3 2 2 2 3 2 3 2 2 3 3 2 2 2 2 2 2 2 2 2 1 1 1 3 5 5 6 7 7 8 9 10 10 10 10 11 11 12 12 12 12 13 13 14 14 15 15 16 17 19
8 7 7 6 6 6 5 5 5 5 5 4 4 4 4 4 3 2 2 2 3 3 3 3 4 4 4 4 4 4 4 3 3 3 4 3 2 0 2 2 1 1 3 5 5 4 3 2 3 2 3 3 2 2 2 2 2 2 4 6 7 7 8 8 9 9 9 10 10 11 11 11 12 12 12 12 12 13 13 14 15 15 15 16 18
7 7 7 7 6 6 5 5 5 5 5 4 4 5 5 5 4 2 1 1 1 2 3 2 2 3 3 2 3 3 3 3 4 4 4 4 4 4 2 3 2 1 3 4 4 4 4 4 4 4 5 4 3 3 3 3 3 5 7 8 9 9 10 10 10 10 10 10 10 11 11 12 12 12 12 12 13 13 13 14 15 15 15 16 17
7 7 8 7 7 6 6 5 5 5 6 5 4 4 4 4 4 3 2 1 0 1 2 3 2 3 3 3 4 3 2 4 4 3 3 4 4 6 5 5 5 2 4 4 4 4 4 5 5 5 6 6 5 5 5 5 7 9 10 10 11 11 11 12 12 12 12 11 11 11 12 12 12 12 13 13 13 13 13 14 14 15 15 15 16
7 7 7 8 7 7 6 6 5 5 6 5 4 4 4 4 4 3 3 2 1 1 2 3 3 3 4 4 5 4 3 4 4 4 3 2 3 5 6 7 7 4 4 5 6 5 4 4 5 5 6 7 7 6 6 7 8 9 10 11 12 12 12 13 14 13 13 12 12 12 13 13 13 13 13 13 13 14 14 14 14 15 15 14 15
7 6 6 7 7 6 6 6 6 6 6 5 5 5 4 4 4 4 3 2 2 2 2 3 4 4 5 5 6 6 5 4 5 5 5 4 4 5 5 7 9 7 4 4 6 6 5 6 6 4 4 6 7 6 7 8 8 9 11 12 12 12 14 15 14 14 14 14 14 14 14 14 13 13 12 12 13 13 14 15 15 15 15 15 15
6 6 6 6 6 6 6 6 6 6 6 6 5 5 5 4 3 3 3 2 3 3 3 4 4 4 5 5 6 6 6 6 5 5 5 6 6 6 6 6 7 8 8 7 7 7 6 8 7 4 4 6 7 7 8 8 8 10 12 12 11 12 14 15 16 16 15 15 15 15 14 13 12 12 11 11 12 12 13 14 15 15 15 15 15
6 7 7 7 6 6 6 6 6 6 6 6 6 5 4 4 3 3 3 3 3 4 4 4 4 4 4 4 5 6 6 6 6 6 5 5 6 6 6 6 5 6 7 7 8 8 8 9 8 5 5 8 9 8 9 9 9 11 12 11 10 12 14 16 17 16 16 15 14 12 11 11 11 11 11 10 11 11 12 14 15 15 15 15 15
6 7 8 7 6 6 6 6 6 6 6 6 6 5 4 4 3 3 3 3 3 4 5 4 4 4 4 4 4 5 5 5 6 6 4 4 5 5 6 6 5 5 5 5 7 10 11 10 10 7 5 8 10 9 9 10 11 12 12 11 11 12 15 17 17 16 16 15 13 12 10 10 11 12 11 10 10 11 11 12 14 14 14 15 15
6 6 7 7 7 6 6 6 6 6 6 6 6 5 4 4 3 3 4 3 3 4 4 5 5 4 4 4 4 5 5 5 6 6 4 4 5 6 5 5 5 5 6 5 6 9 11 11 11 10 9 10 10 11 11 10 11 12 12 12 13 14 17 18 15 15 16 15 13 12 11 12 13 13 13 12 11 11 11 12 13 14 14 14 14
6 6 7 7 7 7 7 6 7 7 7 6 6 5 5 5 4 4 5 4 4 4 4 5 5 4 4 5 5 5 5 5 6 6 5 5 6 6 6 5 5 6 6 6 6 7 10 12 12 11 11 10 10 11 11 10 12 13 12 13 14 16 18 17 14 15 16 15 14 13 14 15 15 15 14 13 12 11 11 11 12 13 13 13 14
7 8 7 7 7 7 7 7 7 7 7 6 6 6 6 5 5 5 4 4 5 5 5 5 5 5 5 5 5 5 5 5 6 6 6 5 6 6 6 6 6 6 6 7 7 8 10 12 12 11 11 11 11 11 11 11 12 12 12 13 14 16 16 14 14 15 14 14 15 14 14 15 15 15 14 14 13 12 12 12 12 12 13 13 13
7 8 8 8 7 7 7 7 6 6 6 6 6 6 6 6 6 6 5 5 6 5 5 5 5 5 5 5 5 5 5 5 6 6 6 6 6 6 6 6 6 6 5 6 8 10 10 11 11 12 11 11 11 10 11 12 12 12 13 13 13 13 13 13 13 14 13 13 14 14 14 14 15 15 14 14 13 13 12 12 11 12 12 12 13
8 8 8 8 8 7 7 7 6 6 6 7 7 7 7 6 6 6 6 6 6 6 6 6 5 5 5 5 5 5 5 5 6 7 7 6 6 6 6 6 7 7 5 6 8 10 11 10 11 12 11 11 11 11 11 11 11 12 12 13 13 13 13 13 13 13 13 12 14 15 14 14 14 14 14 13 13 12 12 11 11 10 10 12 12
8 8 8 8 8 8 8 7 7 7 7 7 7 7 6 6 6 6 6 6 6 6 6 6 6 5 5 6 6 5 5 5 5 6 7 6 6 6 7 7 8 8 7 7 8 10 11 11 11 12 12 11 11 11 11 11 11 12 12 13 13 13 13 13 14 14 13 14 17 17 16 15 15 14 14 14 14 13 12 11 10 9 9 11 12
9 9 9 8 8 8 8 8 8 8 8 8 8 7 7 7 7 7 6 6 7 7 6 6 6 6 6 6 6 6 5 5 6 7 7 6 6 6 7 7 7 8 8 8 8 9 11 12 12 12 12 12 12 11 11 12 12 12 12 12 13 13 13 14 15 14 15 17 18 16 16 16 15 14 15 15 14 14 13 12 11 11 10 10 11
9 9 9 9 8 8 8 8 8 8 8 8 8 8 8 7 7 7 7 7 7 7 7 7 7 7 7 7 7 7 6 7 7 7 6 6 7 7 8 8 8 8 8 8 9 9 10 12 12 12 12 12 12 12 12 13 14 14 13 13 14 14 13 14 15 15 16 17 16 15 16 17 15 15 17 17 15 14 13 13 14 14 13 12 11
10 9 9 9 9 9 8 8 8 8 8 8 8 9 9 8 8 8 8 8 8 8 8 8 8 8 8 8 8 8 7 8 7 7 7 7 7 7 8 8 8 9 9 9 9 9 10 11 12 13 12 12 12 13 12 13 14 15 15 15 14 14 14 14 15 16 16 16 16 17 17 16 16 17 18 18 18 17 15 13 14 15 15 14 12
12 11 11 10 10 10 9 9 9 9 9 9 9 9 9 9 9 9 9 9 9 9 9 9 9 9 9 9 9 8 8 8 8 7 7 7 8 8 8 8 8 9 10 10 10 10 11 12 12 13 13 12 13 14 14 13 13 14 14 14 14 14 14 14 15 16 16 16 18 18 17 17 18 18 18 18 19 19 17 14 12 12 12 12 12
12 12 12 11 11 10 10 10 10 10 11 11 11 10 10 10 10 10 10 10 10 10 10 10 10 10 9 9 10 10 9 8 8 8 8 7 8 8 8 9 9 9 10 10 10 10 11 12 12 13 13 13 13 13 13 12 12 12 13 13 14 15 15 15 15 16 16 16 18 18 17 18 19 19 18 19 19 19 18 16 13 10 10 10 10
11 11 12 11 11 11 10 10 10 11 12 12 12 11 11 10 10 11 11 11 11 11 11 11 11 11 11 11 11 10 9 10 10 11 10 10 10 10 10 10 10 10 11 11 11 11 11 12 12 12 13 13 13 13 13 12 12 14 15 15 15 16 16 16 16 16 15 16 18 18 18 19 20 19 18 18 18 16 16 16 11 8 10 12 11
10 11 11 11 12 11 11 11 11 11 12 12 13 13 12 11 10 10 10 10 11 11 11 11 12 12 12 12 11 10 11 13 13 11 10 10 10 11 11 11 11 11 11 12 12 12 12 12 13 13 13 14 14 14 15 15 15 16 15 15 16 17 17 17 16 15 14 15 17 17 19 21 21 20 18 17 17 15 14 13 10 10 13 13 11
10 10 10 11 12 12 12 12 12 12 11 11 13 15 15 14 12 11 11 11 11 11 12 12 13 13 13 12 12 11 12 13 12 10 10 11 10 10 10 11 11 11 11 12 12 12 12 13 14 14 14 14 15 15 16 17 17 16 16 16 16 17 16 16 16 16 14 14 16 17 19 21 21 19 18 17 17 16 13 13 14 16 16 13 11
11 11 11 11 11 12 12 12 13 12 10 10 12 14 15 15 15 13 13 13 13 13 13 13 13 12 13 12 13 13 12 11 11 10 11 12 12 11 11 10 11 12 13 13 13 13 12 13 14 15 15 15 15 16 16 17 17 16 16 16 16 17 17 17 17 17 16 15 16 19 21 21 19 18 18 17 17 16 15 15 16 16 15 12 11
11 11 11 11 10 10 10 10 11 10 8 10 13 14 15 15 15 14 14 14 14 14 14 13 13 13 12 12 12 13 12 11 11 10 10 11 11 12 13 12 13 13 13 14 15 15 15 14 15 15 15 15 15 15 16 15 15 16 17 18 18 18 18 17 17 19 19 18 18 19 21 20 18 18 18 17 16 16 16 15 16 16 16 15 14
12 12 12 11 10 10 9 9 9 7 8 10 12 13 13 12 12 12 12 14 15 15 14 14 14 13 12 12 12 12 11 10 10 9 9 9 10 10 11 12 13 14 14 15 16 15 16 17 18 18 18 17 16 16 16 15 15 16 17 18 19 18 18 18 18 21 23 22 19 18 19 19 17 17 18 17 17 17 15 15 16 18 18 17 15
11 12 13 12 12 11 10 9 8 6 8 11 11 11 11 11 11 11 11 13 14 14 14 13 13 12 12 12 11 11 10 9 9 11 10 9 10 10 11 12 13 14 15 16 16 15 15 16 17 18 18 17 17 17 16 15 16 17 18 18 19 19 20 20 20 21 22 21 17 16 18 19 18 18 19 18 18 17 15 15 16 17 18 17 15
8 9 10 11 12 11 10 10 9 6 7 9 10 11 12 11 12 12 12 13 14 14 13 12 11 10 9 9 9 10 9 8 10 12 12 11 11 11 12 13 14 15 16 16 16 16 16 15 15 17 17 18 18 20 20 20 20 20 19 19 19 19 19 19 19 20 20 19 17 16 18 20 20 19 19 19 18 17 16 15 14 14 15 15 14
6 6 6 6 7 7 7 9 8 6 4 5 5 6 8 8 9 10 10 12 14 14 13 12 11 9 8 8 8 7 6 7 9 12 13 13 12 11 12 13 15 16 16 15 14 14 14 13 15 17 19 20 21 22 23 23 22 20 18 18 18 18 18 18 18 19 20 20 19 17 18 19 19 18 18 19 18 17 17 16 15 14 14 15 15
7 6 5 4 3 5 7 8 8 7 3 3 2 2 3 4 5 5 7 10 12 12 12 11 10 8 7 7 8 7 7 8 11 12 13 13 11 10 11 13 14 15 15 13 11 10 11 13 16 19 20 21 21 22 24 24 22 19 19 20 19 18 18 18 18 20 21 22 20 17 16 17 17 17 18 19 19 18 17 16 14 13 14 14 15
8 8 7 6 6 6 8 9 8 6 3 2 3 2 3 3 3 3 4 7 8 9 10 9 8 7 6 6 7 7 8 10 10 11 11 10 9 9 11 13 14 14 14 13 11 11 13 16 18 19 20 20 21 21 22 23 22 19 19 21 20 18 18 19 20 19 18 18 18 17 16 17 17 17 17 17 16 17 17 16 14 14 14 13 14
Wind_Direction
124 124 126 125 123 123 119 114 113 110 104 105 103 102 104 102 101 101 106 114 113 112 112 112 109 104 102 99 98 94 92 92 92 95 93 103 107 45 51 73 73 80 84 80 71 14 333 331 329 330 326 325 321 314 313 306 305 307 300 299 300 297 295 296 295 296 299 301 304 305 307 306 305 306 303 302 301 300 299 296 296 292 287 283 283
123 124 125 126 126 125 123 122 125 124 120 119 118 117 117 115 117 113 115 119 113 111 111 109 106 104 103 100 99 94 90 92 94 98 94 94 106 66 55 72 73 69 67 60 53 43 29 6 341 337 333 328 320 316 308 301 303 302 300 299 298 300 302 305 307 310 312 315 318 318 319 318 317 313 306 302 302 301 298 296 294 290 289 288 288
120 123 125 125 124 121 120 123 124 125 124 123 123 124 124 123 120 111 115 119 113 113 111 106 103 101 103 99 97 94 89 94 95 94 92 90 100 94 65 65 67 66 64 58 53 52 51 44 39 34 26 19 12 4 349 333 326 319 317 317 318 324 328 331 333 335 336 336 336 336 335 334 330 322 311 305 304 304 301 299 298 294 293 291 287
119 122 124 121 120 119 121 125 126 124 123 124 125 127 126 122 113 109 121 124 117 113 110 104 101 101 105 100 95 93 89 87 89 89 91 90 94 102 87 61 59 62 63 61 57 56 54 50 47 43 38 35 30 24 17 7 358 351 348 346 346 347 346 347 349 349 349 347 345 343 340 336 330 323 315 310 308 308 308 307 304 300 297 294 289
120 121 121 120 120 123 125 125 124 123 123 125 130 129 125 120 115 117 122 121 113 110 110 105 100 98 99 96 91 90 91 88 87 91 95 97 96 95 98 85 58 52 53 57 58 57 55 50 46 43 38 34 29 23 17 10 6 360 356 352 348 344 342 342 343 345 346 345 344 341 336 330 327 325 320 319 317 314 313 312 308 305 303 300 295
123 122 122 125 126 127 127 127 125 124 125 128 133 128 118 113 116 121 121 116 105 98 97 98 97 91 82 85 88 83 87 85 82 90 92 96 99 93 91 92 86 54 41 44 48 53 55 51 45 40 34 28 23 16 11 5 0 357 352 347 341 336 332 330 329 331 332 333 334 333 330 328 329 330 328 329 326 321 318 314 311 311 309 304 301
126 126 127 132 132 131 129 129 130 129 127 126 127 122 110 103 103 108 114 114 108 100 91 87 88 89 82 80 83 77 79 79 75 97 104 102 98 94 87 80 81 77 46 24 30 38 47 50 44 35 27 21 16 10 5 1 358 355 350 342 334 328 322 320 318 318 321 324 328 331 332 334 335 332 332 332 325 321 321 319 318 317 314 310 308
129 130 131 136 135 134 133 132 134 131 124 118 118 118 111 105 96 87 84 84 100 103 96 91 91 92 97 99 89 82 85 85 86 96 100 103 99 101 94 88 85 69 69 83 14 16 32 39 34 26 22 15 11 6 3 3 1 356 349 343 337 333 331 329 326 326 329 332 336 341 344 343 336 330 328 327 324 324 326 327 327 326 321 317 313
134 134 134 137 137 137 136 136 135 128 124 119 118 118 110 106 96 82 76 60 70 88 89 88 94 100 103 98 91 94 94 87 87 94 99 102 105 120 117 115 117 92 67 89 110 338 6 21 28 29 25 16 10 11 12 10 4 359 357 358 1 3 5 5 2 359 359 1 3 2 356 347 336 332 331 331 333 337 341 341 336 333 328 321 313
136 136 136 137 136 136 136 138 136 131 129 123 117 111 103 99 92 81 76 65 57 67 70 63 71 91 96 93 93 98 104 105 105 113 134 128 112 128 128 133 139 112 75 41 83 48 343 356 15 26 24 20 19 20 20 13 6 7 10 15 22 28 30 32 34 35 37 34 27 16 358 346 340 338 343 348 355 0 358 353 345 339 329 319 312
139 138 136 135 136 136 135 138 136 131 130 124 117 107 89 74 80 77 68 69 59 55 58 51 53 68 77 91 102 103 104 124 144 148 163 140 136 151 144 139 147 142 125 117 39 55 28 358 3 15 17 20 28 28 23 16 13 16 19 25 34 40 46 49 53 52 47 40 28 15 1 352 353 356 6 13 17 17 11 10 6 356 339 324 316
143 138 135 135 135 135 135 137 135 129 124 115 106 95 76 58 59 55 56 71 67 58 55 51 65 77 85 94 99 111 115 117 159 155 160 157 155 166 157 143 139 146 136 89 64 49 51 37 25 41 33 21 27 29 27 25 23 22 25 34 43 48 57 57 56 53 44 39 28 18 10 7 15 22 29 29 28 28 27 28 23 11 357 340 329
144 137 134 133 132 136 138 140 139 130 117 100 91 82 69 59 50 40 54 61 53 59 56 53 80 87 101 109 100 95 103 119 153 153 162 157 158 163 156 153 146 138 126 94 72 68 70 65 50 52 45 25 24 22 23 27 26 28 35 45 53 55 58 57 55 53 47 42 33 26 24 24 32 39 39 37 36 37 37 35 29 21 9 355 346
149 142 135 133 134 137 140 143 140 128 115 100 92 84 71 57 44 39 62 66 59 57 43 28 75 83 93 113 109 97 88 105 128 138 158 149 152 159 162 168 144 118 117 108 85 76 78 73 60 53 40 27 26 21 24 27 27 34 45 53 60 62 62 60 58 57 52 48 41 35 34 32 36 40 40 40 40 40 39 37 32 26 17 6 359
155 150 138 136 136 137 141 144 138 128 119 107 98 94 82 59 48 40 45 78 87 72 47 31 52 81 103 109 115 107 93 91 92 99 130 136 164 158 157 167 121 108 119 115 98 84 81 75 61 43 26 17 16 19 30 33 31 42 53 58 63 65 65 63 59 57 54 51 46 40 37 33 34 35 37 39 40 40 40 39 36 30 21 11 4
160 157 148 144 139 138 143 144 139 131 117 110 109 107 95 70 56 37 21 59 93 85 66 50 47 51 66 87 106 101 94 100 92 81 114 127 153 143 140 145 116 128 165 113 101 93 91 79 53 17 2 9 12 17 30 29 29 43 51 55 61 63 63 61 57 54 52 49 46 41 37 33 32 31 32 35 37 37 38 38 36 31 24 14 8
164 162 155 153 146 142 145 146 143 135 125 115 114 116 108 84 64 45 34 46 71 86 80 64 54 48 40 44 72 75 52 61 74 48 58 98 100 103 125 140 126 149 213 104 107 127 110 77 38 10 2 10 12 18 30 31 31 38 38 44 55 58 55 53 50 48 45 44 41 38 35 32 31 29 29 30 33 33 34 36 36 32 25 17 11
166 164 160 157 154 151 148 150 148 142 135 121 122 134 126 101 71 53 50 46 46 73 87 72 60 56 57 59 53 49 35 20 55 68 39 56 84 109 120 125 131 153 193 160 175 194 95 64 34 48 27 15 12 16 35 37 45 60 40 37 45 47 44 39 35 35 34 33 31 30 29 28 27 27 26 27 28 29 29 31 34 32 27 20 14
170 168 166 162 160 160 157 156 156 154 148 140 146 148 127 107 80 60 53 50 43 48 70 72 68 60 55 67 61 46 42 30 31 74 65 60 75 101 114 126 149 150 162 203 188 81 60 359 13 74 48 14 6 13 40 25 35 62 50 35 35 34 31 25 21 20 20 19 19 19 19 19 21 22 22 23 23 23 23 24 28 29 27 21 15
177 175 173 170 168 169 169 169 168 166 166 163 158 141 121 109 94 74 56 52 49 43 41 38 56 64 45 45 55 44 41 43 35 17 1 68 86 84 99 115 117 93 76 13 13 21 17 350 358 29 32 15 10 14 32 27 4 23 19 22 27 24 20 15 11 11 9 8 8 7 7 7 9 12 14 16 18 17 15 16 21 24 23 20 15
181 181 178 177 176 177 180 180 180 179 180 175 160 142 132 127 117 95 70 59 51 45 41 24 23 50 44 29 28 25 23 36 50 37 15 27 80 109 103 98 69 37 10 17 22 5 8 359 337 341 1 3 1 9 21 16 352 305 343 3 10 7 6 2 359 360 359 359 360 359 358 356 357 360 2 6 10 11 9 8 13 18 19 16 12
183 183 183 183 183 185 188 189 187 188 189 180 163 154 151 152 147 127 90 69 57 43 37 30 20 18 27 27 8 9 18 7 14 34 22 358 326 314 110 98 97 76 10 10 3 349 357 340 312 327 345 342 344 356 357 351 350 324 325 341 346 345 345 346 345 346 348 348 351 352 351 348 346 347 350 353 358 2 3 2 5 11 14 13 9
184 183 185 186 188 190 192 195 194 192 194 188 177 171 165 164 160 154 145 75 53 36 14 7 7 347 347 358 330 344 15 355 8 22 8 1 340 321 9 14 333 80 51 15 334 330 349 338 331 346 341 331 337 337 336 343 329 320 326 328 329 328 328 330 331 331 334 336 339 342 343 342 339 338 339 342 346 351 354 355 358 4 8 10 7
186 184 185 185 187 191 193 197 197 195 197 194 188 181 167 163 163 172 181 174 15 5 352 331 328 317 315 314 306 321 349 333 344 10 9 20 338 313 349 353 314 349 30 352 313 320 334 336 341 355 353 341 337 331 332 332 312 312 325 324 323 324 321 322 324 323 325 326 327 329 331 333 332 331 331 332 336 340 344 346 349 355 1 5 5
188 186 185 184 186 190 191 196 197 196 199 196 191 186 175 173 176 186 195 192 219 288 306 304 307 302 300 305 305 314 331 326 325 329 331 347 311 317 349 335 307 324 1 329 318 309 302 331 338 356 0 336 321 319 321 321 309 310 323 325 326 328 327 327 326 324 322 318 318 319 320 323 325 324 324 325 328 330 334 337 340 345 351 358 2
187 184 181 182 185 189 189 191 194 195 196 194 191 191 189 190 195 203 205 201 222 255 275 285 287 284 290 296 301 307 315 317 313 312 317 324 331 345 355 331 313 318 323 312 312 304 303 328 328 353 4 322 313 318 313 316 311 311 326 331 328 327 330 334 333 328 323 317 314 314 316 320 321 320 319 318 319 322 325 327 331 336 341 348 354
182 180 179 181 184 188 188 186 188 191 193 192 191 195 199 201 210 218 219 219 235 254 265 272 277 277 283 288 293 297 302 311 310 308 320 331 341 348 346 335 324 323 323 318 313 308 314 321 315 334 354 328 320 318 313 319 309 309 328 334 326 320 322 329 334 332 329 325 321 319 321 324 324 322 319 314 311 313 317 320 323 329 333 338 345
176 180 180 183 185 188 189 184 184 189 190 194 196 195 200 208 215 225 234 236 241 256 263 263 269 273 270 273 285 291 297 308 308 305 316 327 332 336 332 333 335 327 323 322 320 317 319 321 313 316 335 328 322 312 313 319 305 310 327 326 318 316 313 321 330 333 335 337 334 331 332 332 328 324 320 314 309 308 310 313 317 321 326 331 336
176 177 178 181 184 187 190 186 185 190 190 194 200 198 201 213 218 225 240 248 250 256 263 264 267 273 271 266 272 283 290 296 293 292 300 310 311 311 315 324 328 319 314 319 319 314 315 318 314 318 334 327 319 312 313 313 306 315 324 317 315 312 308 318 327 329 333 336 335 336 336 333 330 326 321 315 309 308 308 308 313 317 320 326 331
177 172 173 178 183 187 191 189 185 189 191 192 196 198 206 215 218 229 238 248 258 258 259 263 267 271 274 276 277 279 284 286 285 286 291 291 291 293 300 308 309 305 305 307 307 308 311 312 312 319 328 326 322 319 319 316 314 321 323 316 314 309 311 320 325 324 329 331 329 329 328 326 327 325 322 317 309 306 307 308 312 316 318 323 327
180 175 177 178 182 187 192 196 192 189 192 194 193 194 203 212 220 228 226 227 245 260 262 260 263 266 269 275 278 279 282 287 288 287 286 282 284 289 293 298 298 294 295 296 295 301 304 305 309 315 318 323 326 323 321 320 318 321 323 316 312 310 314 320 320 318 323 328 327 324 322 322 323 321 320 318 313 306 306 309 313 318 319 321 324
181 181 185 184 184 190 194 196 195 193 194 197 195 195 201 210 221 230 218 214 237 257 261 259 259 261 267 273 275 277 281 285 287 286 282 277 278 282 287 291 291 288 289 289 289 293 297 300 306 310 313 319 322 320 319 317 316 320 322 317 313 313 315 317 316 313 315 325 330 326 324 324 322 321 317 315 315 309 306 309 315 320 321 321 324
185 182 186 187 189 194 198 197 197 195 197 201 201 201 207 210 218 228 225 226 241 252 257 261 262 260 263 268 272 276 278 280 284 284 282 278 275 276 279 283 288 291 293 290 291 296 298 301 305 307 312 316 316 319 319 316 317 321 320 317 315 314 314 315 316 310 305 320 333 333 332 333 330 326 320 315 317 315 310 310 315 322 325 325 325
192 188 188 188 189 193 197 197 199 201 201 208 213 213 218 221 223 230 228 227 237 245 251 257 259 259 259 262 266 267 265 269 276 282 285 285 285 286 288 290 295 297 295 294 296 299 300 304 307 306 310 313 313 317 318 315 317 318 316 316 316 316 316 316 316 310 302 312 327 329 331 335 336 334 328 321 319 319 314 310 311 320 329 332 331
194 195 196 192 188 191 196 195 197 203 204 210 218 221 228 233 236 239 235 230 235 240 245 250 253 254 253 256 260 262 261 263 271 279 285 287 288 291 292 293 295 296 297 295 295 297 300 304 306 306 310 313 311 312 312 311 312 313 313 315 315 315 315 314 313 309 305 310 318 321 324 328 331 334 333 328 321 318 313 308 308 315 324 330 333
198 197 200 198 193 194 200 199 199 205 208 212 220 225 231 237 241 242 239 236 239 241 243 249 252 252 255 258 261 263 263 264 267 272 277 280 284 287 289 291 293 295 298 296 291 293 295 298 301 304 307 307 305 307 310 311 310 310 311 312 312 312 311 311 309 308 308 311 315 318 321 323 323 326 330 330 326 319 312 305 301 303 310 317 323
206 199 200 201 201 202 207 208 207 209 211 214 219 223 228 234 238 241 241 239 242 245 247 249 250 252 255 256 257 259 259 260 263 269 275 280 285 287 287 289 292 294 296 293 290 287 287 291 296 299 299 300 301 304 308 309 309 310 310 308 308 309 310 309 308 309 311 313 317 321 321 320 320 319 322 325 326 324 318 308 300 295 294 297 304
214 209 206 206 206 207 211 214 215 215 218 220 222 225 230 233 235 238 240 241 244 248 250 250 250 250 251 252 252 253 254 258 263 269 274 278 280 282 284 286 288 289 287 285 284 283 283 284 288 291 293 297 299 301 304 305 305 306 308 308 307 308 311 311 310 311 313 314 316 316 314 315 317 316 315 319 323 325 324 319 311 302 291 286 288
218 218 217 214 212 213 216 220 222 220 221 223 223 227 232 233 233 234 237 240 245 248 249 250 250 249 248 249 248 245 247 253 259 264 269 274 276 278 279 281 284 285 285 285 284 283 283 283 285 289 292 296 297 298 301 300 295 296 302 307 307 308 311 311 309 310 312 313 313 312 312 314 315 315 312 313 318 320 320 322 323 317 302 289 283
220 223 224 223 222 223 224 226 227 224 222 223 224 226 231 233 233 232 233 237 242 246 248 248 248 247 247 247 245 244 244 243 249 258 262 266 272 275 276 277 279 279 280 284 285 283 283 284 286 290 292 293 293 294 299 300 296 298 303 305 305 306 308 308 307 309 309 310 312 313 315 315 314 314 311 310 313 312 312 317 322 326 322 307 290
223 226 228 230 230 230 229 228 229 229 226 224 222 220 223 229 235 236 235 237 240 243 247 249 248 246 245 245 246 243 237 239 253 265 265 264 268 270 272 273 275 276 277 279 279 278 279 281 284 287 289 289 291 294 298 301 300 301 302 303 302 303 306 306 304 305 305 306 309 311 312 313 311 308 304 304 307 305 304 309 313 316 321 315 299
223 223 224 228 230 232 232 230 230 231 232 232 226 221 220 222 230 238 241 241 243 246 249 252 253 252 249 249 250 247 246 256 267 272 268 266 266 265 266 267 269 273 276 277 277 277 279 280 281 284 286 288 293 298 299 299 302 303 303 304 303 302 305 304 302 303 303 304 307 305 305 308 308 303 298 298 302 304 304 302 293 293 305 308 301
219 221 223 227 230 233 234 233 234 234 235 236 230 227 230 231 233 239 243 243 244 245 247 249 252 255 254 255 254 250 251 260 269 276 279 281 277 269 264 262 261 262 263 266 271 275 278 279 281 284 287 289 293 296 297 300 305 306 305 302 299 299 300 300 299 302 303 304 305 300 300 306 307 300 296 297 301 305 304 296 290 294 301 303 299
221 222 226 229 231 234 235 236 238 237 235 233 230 232 241 245 245 245 246 246 245 244 243 244 247 251 254 256 257 255 254 255 256 264 275 283 287 285 275 266 258 253 251 253 256 261 267 274 279 282 283 287 291 293 296 302 305 304 299 295 293 292 293 292 292 296 299 303 302 298 299 305 306 300 296 296 301 304 303 297 293 298 302 299 295
227 226 228 229 227 230 233 236 239 238 234 235 237 240 248 253 253 250 248 248 248 247 246 244 245 248 251 255 259 261 263 262 259 257 257 264 277 286 286 281 272 264 258 254 252 251 253 259 267 271 274 278 283 285 289 295 297 294 292 292 291 290 287 286 287 291 295 298 296 296 299 301 302 302 298 298 303 304 302 297 290 293 300 299 294
228 227 227 225 224 223 224 231 236 237 238 240 241 244 246 250 253 252 252 251 250 249 248 247 247 247 246 248 254 259 262 263 260 256 254 256 264 271 275 275 273 270 269 267 265 263 258 254 254 259 265 269 273 278 283 286 288 288 289 291 292 290 286 284 285 287 289 289 286 288 293 295 300 303 300 301 305 302 299 297 290 290 296 298 296
223 225 223 222 221 217 215 222 226 227 235 240 243 247 248 248 252 254 257 259 256 252 250 249 249 248 246 247 251 256 260 259 257 258 261 266 268 267 266 266 266 267 268 267 267 266 264 261 257 258 263 268 270 274 279 281 281 282 284 286 286 286 285 284 284 283 285 285 281 279 285 291 298 301 300 302 305 301 297 297 294 294 295 296 296
211 215 215 216 218 217 214 216 214 207 228 241 247 253 254 251 252 255 257 258 258 256 252 249 247 248 248 248 251 257 260 256 256 264 270 273 273 273 272 272 274 275 273 272 270 265 259 258 257 258 264 269 271 276 282 284 282 280 281 282 281 279 279 280 281 282 285 289 288 286 288 291 296 299 300 302 304 300 297 296 296 297 294 291 295
180 184 187 193 202 202 195 194 183 166 200 234 243 255 257 253 251 252 253 254 257 258 254 248 245 248 249 251 257 268 272 255 248 259 271 276 277 277 276 278 281 280 280 282 283 277 269 270 274 278 283 287 287 289 290 289 287 283 276 272 273 275 275 276 278 282 286 289 291 292 290 289 293 296 298 301 300 295 293 295 295 292 285 282 290
132 129 120 111 127 134 134 141 139 129 151 214 227 254 263 253 242 243 254 259 261 262 259 253 250 252 253 259 265 266 265 259 255 260 269 275 277 278 279 282 284 284 288 294 293 287 287 295 299 301 301 302 302 301 297 294 294 288 270 262 266 270 272 273 276 282 286 287 290 296 291 287 291 295 298 302 300 293 292 295 294 290 284 283 290
110 113 114 96 85 101 116 127 131 128 142 214 245 264 272 259 235 231 261 267 261 261 265 263 260 257 248 251 257 252 251 258 264 270 275 278 277 278 281 284 286 290 297 302 299 295 297 299 299 299 298 298 299 298 295 295 296 290 275 267 267 267 269 272 275 280 285 288 294 303 299 292 293 296 299 303 301 296 296 295 291 288 283 279 282